Weather History for New River MCAS, NC

Change the Weather History Date:

Thursday, August 29, 2013

  Actual Average Record
Temperature  
Mean Temperature 82 °F -  
Max Temperature 89 °F 83 °F 96 °F (1998)
Min Temperature 73 °F 68 °F 66 °F (2010)
Cooling Degree Days 16    
Growing Degree Days 32 (Base 50)    
Moisture  
Dew Point 71 °F    
Average Humidity 75    
Maximum Humidity 88    
Minimum Humidity 57    
Precipitation  
Precipitation 0.00 in - - ()
Sea Level Pressure  
Sea Level Pressure 29.91 in    
Wind  
Wind Speed 9 mph (NW)    
Max Wind Speed 17 mph    
Max Gust Speed 17 mph    
Visibility 9 miles    
Events      
Averages and records for this station are not official NWS values.
T = Trace of Precipitation, MM = Missing Value Source: NWS Daily Summary

Daily Weather History Graph

Daily Weather History Graph

Search for Another Location

Airport:

Trip Planner

Search our weather history database for the weather conditions in past years. The results will help you decide how hot, cold, wet, or windy it might be!

Date:

Astronomy

Aug. 29, 2013 Rise Set
Actual Time 6:40 AM EDT 7:39 PM EDT
Civil Twilight 6:14 AM EDT 8:05 PM EDT
Nautical Twilight 5:44 AM EDT 8:36 PM EDT
Astronomical Twilight 5:12 AM EDT 9:07 PM EDT
Moon 12:37 AM EDT (8/29) 2:59 PM EDT (8/29)
Length of Visible Light 13h 50m
Length of Day
12h 59m
Last Quarter, 38% of the Moon is Illuminated
Aug 29
Last Quarter
Sep 5
New
Sep 12
First Quarter
Sep 19
Full
Sep 26
Last Quarter

Hourly Weather History & Observations

Time (EDT) Temp. Heat Index Dew Point Humidity Pressure Visibility Wind Dir Wind Speed Gust Speed Precip Events Conditions
12:56 AM 77.0 °F - 73.0 °F 88% 29.90 in 9.0 mi SW 8.1 mph - N/A   Mostly Cloudy
1:56 AM 77.0 °F - 72.0 °F 84% 29.89 in 9.0 mi WSW 8.1 mph - N/A   Overcast
2:56 AM 77.0 °F - 72.0 °F 84% 29.89 in 9.0 mi WSW 9.2 mph - N/A   Overcast
3:56 AM 77.0 °F - 71.1 °F 82% 29.88 in 8.0 mi WSW 8.1 mph - N/A   Overcast
4:56 AM 77.0 °F - 71.1 °F 82% 29.87 in 8.0 mi WSW 10.4 mph - N/A   Clear
5:56 AM 75.9 °F - 70.0 °F 82% 29.87 in 8.0 mi WSW 10.4 mph - 0.00 in   Clear
6:56 AM 75.9 °F - 70.0 °F 82% 29.88 in 10.0 mi WSW 10.4 mph - N/A   Mostly Cloudy
7:56 AM 75.9 °F - 70.0 °F 82% 29.89 in 7.0 mi WSW 10.4 mph - N/A   Mostly Cloudy
8:56 AM 79.0 °F - 71.1 °F 77% 29.90 in 7.0 mi West 9.2 mph - N/A   Scattered Clouds
9:56 AM 82.0 °F 86.7 °F 72.0 °F 71% 29.91 in 6.0 mi West 10.4 mph - N/A   Haze
10:56 AM 82.9 °F 88.8 °F 73.0 °F 72% 29.91 in 7.0 mi NW 11.5 mph - N/A   Mostly Cloudy
11:56 AM 86.0 °F 93.0 °F 73.0 °F 65% 29.90 in 7.0 mi NNW 6.9 mph - N/A   Partly Cloudy
12:56 PM 87.1 °F 94.5 °F 73.0 °F 63% 29.90 in 10.0 mi NNW 8.1 mph - N/A   Overcast
1:56 PM 86.0 °F 93.0 °F 73.0 °F 65% 29.90 in 8.0 mi North 10.4 mph - N/A   Mostly Cloudy
2:56 PM 88.0 °F 95.6 °F 73.0 °F 61% 29.89 in 7.0 mi North 9.2 mph 17.3 mph N/A   Clear
3:56 PM 88.0 °F 93.8 °F 71.1 °F 57% 29.89 in 10.0 mi NNW 13.8 mph - N/A   Partly Cloudy
4:56 PM 87.1 °F 93.6 °F 72.0 °F 61% 29.90 in 10.0 mi North 9.2 mph - N/A   Mostly Cloudy
5:56 PM 84.9 °F 90.1 °F 71.1 °F 63% 29.91 in 10.0 mi North 10.4 mph - N/A   Mostly Cloudy
6:56 PM 80.1 °F 83.2 °F 70.0 °F 71% 29.93 in 10.0 mi NE 17.3 mph - N/A   Mostly Cloudy
7:56 PM 78.1 °F - 70.0 °F 76% 29.94 in 10.0 mi NE 10.4 mph - N/A   Clear
8:56 PM 77.0 °F - 70.0 °F 79% 29.96 in 10.0 mi NE 8.1 mph - N/A   Clear
9:56 PM 75.9 °F - 70.0 °F 82% 29.99 in 10.0 mi NE 8.1 mph - N/A   Clear
10:56 PM 75.0 °F - 69.1 °F 82% 30.01 in 10.0 mi NE 6.9 mph - N/A   Clear
11:56 PM 73.9 °F - 69.1 °F 85% 30.01 in 10.0 mi NE 6.9 mph - N/A   Partly Cloudy